| time (UTC) | temp F | wind direction | speed MPH | gust MPH | rain 1hr in | rain 24hr in | rain mn in | humidity % | barometer mb |
| 20260831021606 | 74 | 171 | 0.0 | 2.0 | 0.00 | 0.17 | 0.17 | 88 | 1013.3 |
| 20260831020105 | 73 | 0 | 0.0 | 0.0 | 0.00 | 0.17 | 0.17 | 88 | 1013.4 |
| 20260831014626 | 74 | 0 | 0.0 | 0.0 | 0.00 | 0.17 | 0.17 | 88 | 1013.3 |
| 20260831013104 | 74 | 0 | 0.0 | 1.0 | 0.00 | 0.17 | 0.17 | 88 | 1013.3 |
| 20260831011609 | 74 | 0 | 0.0 | 1.0 | 0.00 | 0.17 | 0.17 | 87 | 1013.0 |
| 20260831010109 | 74 | 0 | 0.0 | 1.0 | 0.00 | 0.17 | 0.17 | 87 | 1012.8 |
| 20260831004604 | 74 | 0 | 0.0 | 3.0 | 0.01 | 0.17 | 0.17 | 87 | 1012.5 |
| 20260831003101 | 74 | 160 | 0.0 | 2.0 | 0.01 | 0.17 | 0.17 | 87 | 1012.6 |
| 20260831001630 | 74 | 0 | 0.0 | 1.0 | 0.02 | 0.17 | 0.17 | 87 | 1013.0 |
| 20260831000105 | 74 | 0 | 0.0 | 1.0 | 0.02 | 0.17 | 0.17 | 86 | 1013.3 |
| 20260830234603 | 74 | 0 | 0.0 | 0.0 | 0.01 | 0.16 | 0.16 | 86 | 1013.6 |
| 20260830233116 | 74 | 0 | 0.0 | 1.0 | 0.01 | 0.16 | 0.16 | 86 | 1013.4 |
| 20260830231609 | 74 | 0 | 0.0 | 1.0 | 0.00 | 0.15 | 0.15 | 85 | 1013.7 |
| 20260830230120 | 74 | 0 | 0.0 | 0.0 | 0.01 | 0.15 | 0.15 | 85 | 1014.1 |
| 20260830224606 | 74 | 0 | 0.0 | 0.0 | 0.01 | 0.15 | 0.15 | 85 | 1014.2 |
| 20260830223103 | 74 | 0 | 0.0 | 0.0 | 0.01 | 0.15 | 0.15 | 84 | 1013.8 |
| 20260830221604 | 74 | 0 | 0.0 | 0.0 | 0.01 | 0.15 | 0.15 | 84 | 1013.8 |
| 20260830220107 | 74 | 0 | 0.0 | 0.0 | 0.00 | 0.14 | 0.14 | 83 | 1013.7 |
| 20260830214559 | 74 | 160 | 0.0 | 2.0 | 0.00 | 0.14 | 0.14 | 83 | 1014.0 |
| 20260830213105 | 74 | 0 | 0.0 | 3.0 | 0.01 | 0.14 | 0.14 | 82 | 1013.9 |
| 20260830211601 | 74 | 158 | 0.0 | 3.0 | 0.03 | 0.14 | 0.14 | 83 | 1014.2 |
| 20260830210106 | 74 | 167 | 0.0 | 3.0 | 0.04 | 0.14 | 0.14 | 82 | 1014.2 |
| 20260830204605 | 74 | 143 | 0.0 | 4.0 | 0.04 | 0.14 | 0.14 | 81 | 1014.0 |
| 20260830203103 | 75 | 158 | 1.0 | 6.0 | 0.03 | 0.13 | 0.13 | 78 | 1014.2 |
| 20260830201600 | 76 | 205 | 1.0 | 4.0 | 0.01 | 0.11 | 0.11 | 76 | 1014.2 |
| 20260830200057 | 76 | 0 | 0.0 | 0.0 | 0.00 | 0.10 | 0.10 | 73 | 1014.3 |
| 20260830194611 | 77 | 0 | 0.0 | 2.0 | 0.00 | 0.10 | 0.10 | 71 | 1014.2 |
| 20260830193102 | 79 | 290 | 0.0 | 2.0 | 0.00 | 0.10 | 0.10 | 68 | 1014.3 |
| 20260830191607 | 80 | 0 | 0.0 | 3.0 | 0.00 | 0.10 | 0.10 | 66 | 1013.9 |
| 20260830190106 | 80 | 0 | 0.0 | 5.0 | 0.00 | 0.10 | 0.10 | 64 | 1013.7 |
| 20260830184600 | 81 | 189 | 0.0 | 4.0 | 0.00 | 0.10 | 0.10 | 62 | 1013.4 |
| 20260830183106 | 81 | 0 | 0.0 | 9.0 | 0.00 | 0.10 | 0.10 | 63 | 1012.8 |
| 20260830181602 | 81 | 138 | 2.0 | 7.0 | 0.00 | 0.10 | 0.10 | 62 | 1012.8 |
| 20260830180106 | 81 | 107 | 1.0 | 8.0 | 0.00 | 0.10 | 0.10 | 61 | 1012.8 |
| 20260830174615 | 81 | 143 | 2.0 | 9.0 | 0.00 | 0.10 | 0.10 | 62 | 1013.0 |
| 20260830173103 | 79 | 184 | 1.0 | 10.0 | 0.00 | 0.10 | 0.10 | 63 | 1013.4 |
| 20260830171607 | 78 | 0 | 0.0 | 9.0 | 0.00 | 0.10 | 0.10 | 66 | 1013.5 |
| 20260830164601 | 78 | 160 | 2.0 | 8.0 | 0.00 | 0.10 | 0.10 | 65 | 1013.3 |
| 20260830163109 | 77 | 135 | 3.0 | 11.0 | 0.00 | 0.10 | 0.10 | 68 | 1013.3 |
| 20260830161606 | 76 | 205 | 2.0 | 10.0 | 0.00 | 0.10 | 0.10 | 71 | 1013.4 |
| 20260830160115 | 75 | 0 | 2.0 | 11.0 | 0.00 | 0.10 | 0.10 | 74 | 1013.4 |
| 20260830154601 | 73 | 188 | 2.0 | 8.0 | 0.00 | 0.10 | 0.10 | 76 | 1013.3 |
| 20260830153108 | 72 | 143 | 1.0 | 8.0 | 0.00 | 0.10 | 0.10 | 80 | 1013.2 |
| 20260830151604 | 71 | 133 | 1.0 | 11.0 | 0.00 | 0.10 | 0.10 | 81 | 1013.1 |
| 20260830150111 | 70 | 139 | 1.0 | 6.0 | 0.00 | 0.10 | 0.10 | 85 | 1013.3 |
| 20260830144606 | 69 | 75 | 1.0 | 5.0 | 0.00 | 0.10 | 0.10 | 85 | 1013.3 |
| 20260830143107 | 69 | 148 | 1.0 | 7.0 | 0.01 | 0.10 | 0.10 | 86 | 1013.6 |
| 20260830141606 | 68 | 186 | 1.0 | 5.0 | 0.01 | 0.10 | 0.10 | 87 | 1013.4 |
| 20260830140107 | 68 | 178 | 1.0 | 5.0 | 0.02 | 0.10 | 0.10 | 87 | 1013.7 |
| 20260830134607 | 67 | 0 | 2.0 | 7.0 | 0.04 | 0.10 | 0.10 | 87 | 1013.8 |
| 20260830133059 | 67 | 183 | 1.0 | 5.0 | 0.04 | 0.09 | 0.09 | 87 | 1014.4 |
| 20260830131607 | 67 | 0 | 1.0 | 5.0 | 0.06 | 0.09 | 0.09 | 87 | 1014.1 |
| 20260830130109 | 68 | 176 | 1.0 | 4.0 | 0.06 | 0.08 | 0.08 | 86 | 1014.5 |
| 20260830124605 | 68 | 0 | 0.0 | 4.0 | 0.04 | 0.06 | 0.06 | 86 | 1014.7 |
| 20260830123059 | 68 | 153 | 0.0 | 3.0 | 0.02 | 0.04 | 0.04 | 85 | 1014.6 |
| 20260830121607 | 68 | 156 | 0.0 | 2.0 | 0.01 | 0.03 | 0.03 | 83 | 1014.6 |
| 20260830120104 | 68 | 0 | 0.0 | 4.0 | 0.02 | 0.02 | 0.02 | 82 | 1014.2 |
| 20260830114612 | 69 | 0 | 0.0 | 2.0 | 0.02 | 0.02 | 0.02 | 81 | 1013.9 |
| 20260830113100 | 69 | 0 | 0.0 | 4.0 | 0.02 | 0.02 | 0.02 | 80 | 1013.8 |
| 20260830111600 | 70 | 0 | 0.0 | 3.0 | 0.02 | 0.02 | 0.02 | 78 | 1013.5 |
| 20260830104606 | 71 | 173 | 1.0 | 5.0 | 0.00 | 0.00 | 0.00 | 74 | 1012.8 |
| 20260830103103 | 72 | 0 | 0.0 | 7.0 | 0.00 | 0.00 | 0.00 | 73 | 1012.8 |
| 20260830101602 | 71 | 139 | 2.0 | 6.0 | 0.00 | 0.00 | 0.00 | 73 | 1012.7 |
| 20260830094605 | 71 | 167 | 1.0 | 6.0 | 0.00 | 0.00 | 0.00 | 73 | 1012.9 |
| 20260830093101 | 72 | 155 | 2.0 | 6.0 | 0.00 | 0.00 | 0.00 | 72 | 1012.7 |
| 20260830091600 | 72 | 157 | 2.0 | 6.0 | 0.00 | 0.00 | 0.00 | 71 | 1012.8 |
| 20260830090113 | 72 | 134 | 2.0 | 7.0 | 0.00 | 0.00 | 0.00 | 70 | 1012.9 |
| 20260830084603 | 72 | 0 | 1.0 | 6.0 | 0.00 | 0.00 | 0.00 | 70 | 1013.0 |
| 20260830083101 | 73 | 136 | 1.0 | 4.0 | 0.00 | 0.00 | 0.00 | 69 | 1013.2 |
| 20260830081605 | 73 | 172 | 1.0 | 8.0 | 0.00 | 0.00 | 0.00 | 68 | 1013.3 |
| 20260830080104 | 73 | 0 | 0.0 | 5.0 | 0.00 | 0.00 | 0.00 | 68 | 1013.2 |
| 20260830074605 | 73 | 156 | 1.0 | 5.0 | 0.00 | 0.00 | 0.00 | 67 | 1013.3 |
| 20260830073103 | 73 | 0 | 0.0 | 3.0 | 0.00 | 0.00 | 0.00 | 67 | 1013.4 |
| 20260830071604 | 73 | 161 | 1.0 | 5.0 | 0.00 | 0.00 | 0.00 | 67 | 1013.3 |
| 20260830070113 | 73 | 133 | 1.0 | 8.0 | 0.00 | 0.00 | 0.00 | 67 | 1013.5 |
| 20260830064603 | 73 | 192 | 2.0 | 7.0 | 0.00 | 0.00 | 0.00 | 68 | 1013.5 |
| 20260830063115 | 74 | 172 | 1.0 | 6.0 | 0.00 | 0.00 | 0.00 | 68 | 1013.7 |
| 20260830061607 | 74 | 195 | 2.0 | 7.0 | 0.00 | 0.00 | 0.00 | 66 | 1013.9 |
| 20260830060107 | 74 | 131 | 1.0 | 6.0 | 0.00 | 0.00 | 0.00 | 67 | 1013.9 |
| 20260830054604 | 74 | 129 | 1.0 | 5.0 | 0.00 | 0.00 | 0.00 | 67 | 1013.9 |
| 20260830053101 | 74 | 201 | 2.0 | 7.0 | 0.00 | 0.00 | 0.00 | 68 | 1013.7 |
| 20260830051613 | 74 | 214 | 1.0 | 7.0 | 0.00 | 0.00 | 0.00 | 68 | 1013.8 |
| 20260830050100 | 73 | 119 | 2.0 | 6.0 | 0.00 | 0.00 | 0.00 | 69 | 1013.8 |
| 20260830044610 | 73 | 226 | 2.0 | 8.0 | 0.00 | 0.00 | 0.00 | 69 | 1013.9 |
| 20260830043102 | 73 | 141 | 1.0 | 8.0 | 0.00 | 0.00 | 0.00 | 70 | 1014.1 |
| 20260830041654 | 74 | 173 | 1.0 | 7.0 | 0.00 | 0.00 | 0.00 | 70 | 1014.1 |
| 20260830040111 | 74 | 0 | 2.0 | 6.0 | 0.00 | 0.00 | 0.00 | 71 | 1014.2 |
| 20260830034622 | 74 | 125 | 1.0 | 6.0 | 0.00 | 0.00 | 0.00 | 71 | 1014.4 |
| 20260830033101 | 74 | 82 | 1.0 | 6.0 | 0.00 | 0.00 | 0.00 | 71 | 1014.4 |
| 20260830031605 | 74 | 186 | 2.0 | 7.0 | 0.00 | 0.00 | 0.00 | 71 | 1014.4 |
| 20260830030108 | 74 | 174 | 1.0 | 5.0 | 0.00 | 0.00 | 0.00 | 71 | 1014.5 |
| 20260830024601 | 74 | 138 | 2.0 | 8.0 | 0.00 | 0.00 | 0.00 | 71 | 1014.3 |
| 20260830023100 | 74 | 0 | 1.0 | 4.0 | 0.00 | 0.00 | 0.00 | 71 | 1014.4 |